TimeEDT,TemperatureF,Dew PointF,Humidity,Sea Level PressureIn,VisibilityMPH,Wind Direction,Wind SpeedMPH,Gust SpeedMPH,PrecipitationIn,Events,Conditions,WindDirDegrees,DateUTC
12:53 AM,26.1,9.0,49,30.30,10.0,North,3.5,-,N/A,,Clear,350,2013-03-18 04:53:00
1:53 AM,26.1,9.0,49,30.34,10.0,NNE,4.6,-,N/A,,Clear,20,2013-03-18 05:53:00
2:53 AM,26.1,6.1,43,30.36,10.0,NNE,5.8,-,N/A,,Clear,20,2013-03-18 06:53:00
3:53 AM,24.1,1.9,38,30.37,10.0,North,8.1,-,N/A,,Clear,360,2013-03-18 07:53:00
4:53 AM,23.0,-2.0,34,30.38,10.0,North,6.9,-,N/A,,Clear,360,2013-03-18 08:53:00
5:53 AM,21.9,-0.0,38,30.41,10.0,North,4.6,-,N/A,,Clear,360,2013-03-18 09:53:00
6:53 AM,19.9,1.0,44,30.43,10.0,NW,3.5,-,N/A,,Clear,320,2013-03-18 10:53:00
7:53 AM,21.9,1.9,42,30.45,10.0,NNW,3.5,-,N/A,,Clear,340,2013-03-18 11:53:00
8:53 AM,26.1,3.0,37,30.45,10.0,North,5.8,-,N/A,,Clear,350,2013-03-18 12:53:00
9:53 AM,28.9,8.1,41,30.44,10.0,Variable,6.9,-,N/A,,Clear,0,2013-03-18 13:53:00
10:53 AM,32.0,10.0,40,30.43,10.0,Variable,4.6,-,N/A,,Clear,0,2013-03-18 14:53:00
11:53 AM,34.0,10.9,38,30.40,10.0,Variable,3.5,-,N/A,,Clear,0,2013-03-18 15:53:00
12:53 PM,35.1,12.9,40,30.40,10.0,SSE,6.9,-,N/A,,Clear,160,2013-03-18 16:53:00
1:53 PM,35.1,15.1,44,30.39,10.0,SE,9.2,-,N/A,,Clear,140,2013-03-18 17:53:00
2:53 PM,36.0,10.9,36,30.36,10.0,SSE,9.2,-,N/A,,Clear,150,2013-03-18 18:53:00
3:53 PM,35.1,17.1,48,30.35,10.0,South,8.1,-,N/A,,Clear,170,2013-03-18 19:53:00
4:53 PM,34.0,19.9,56,30.32,10.0,SE,10.4,-,N/A,,Clear,130,2013-03-18 20:53:00
5:53 PM,33.1,19.0,56,30.31,10.0,SSE,8.1,-,N/A,,Clear,160,2013-03-18 21:53:00
6:53 PM,33.1,19.9,59,30.31,10.0,SE,11.5,-,N/A,,Overcast,140,2013-03-18 22:53:00
7:53 PM,33.1,19.9,59,30.30,10.0,ESE,9.2,-,N/A,,Overcast,120,2013-03-18 23:53:00
8:53 PM,33.1,21.0,61,30.28,10.0,SE,13.8,-,N/A,,Overcast,140,2013-03-19 00:53:00
9:53 PM,33.1,23.0,66,30.27,10.0,ESE,11.5,-,N/A,,Overcast,120,2013-03-19 01:53:00
10:53 PM,33.1,23.0,66,30.24,10.0,ESE,10.4,-,N/A,,Overcast,120,2013-03-19 02:53:00
11:51 PM,33.8,24.8,70,30.22,9.0,ESE,9.2,-,N/A,,Overcast,110,2013-03-19 03:51:00
11:53 PM,34.0,24.1,67,30.22,9.0,ESE,12.7,-,N/A,,Overcast,120,2013-03-19 03:53:00